Location: Lake Almanor
(40.2485°N, 121.1442°W)
Time: 11:35:07
(UTC-08:00)

STARLINK-1126 - Pass Details

Date: 03 February 2020
Orbit: 348 x 351 km, 53.0° (Epoch: 18 February)

Event Time Altitude Azimuth Distance (km) Brightness Sun altitude
Rises 17:57:31 0° 305° (NW) 2,164 7.3 -6.7°
Reaches altitude 10° 17:59:33 10° 300° (WNW) 1,318 6.3 -7.0°
Maximum altitude 18:02:25 51° 223° (SW) 449 3.6 -7.6°
Drops below altitude 10° 18:05:16 10° 146° (SE) 1,310 5.4 -8.1°
Sets 18:07:17 0° 141° (SE) 2,149 6.4 -8.5°
